CW8246 Weather Reports


Display with metric or nautical units.
time (UTC)temp
F
wind
direction
speed
MPH
gust
MPH
rain 1hr
in
rain 24hr
in
rain mn
in
humidity
%
barometer
mb
20190521222605 55 65 0.0 2.0 0.01 0.01 0.01 100 1011.5
20190521222104 56 81 0.0 2.0 0.01 0.01 0.01 100 1011.8
20190521221603 56 69 1.0 3.0 0.00 0.00 0.00 100 1011.9
20190521220604 58 50 0.0 9.0 0.00 0.00 0.00 100 1012.1
20190521220103 58 50 1.0 3.0 0.00 0.00 0.00 100 1012.1
20190521215604 59 206 0.0 2.0 0.00 0.00 0.00 100 1012.2
20190521214604 59 75 0.0 2.0 0.00 0.00 0.00 100 1012.4
20190521214103 59 67 1.0 6.0 0.00 0.00 0.00 100 1012.5
20190521213104 59 108 1.0 5.0 0.00 0.00 0.00 100 1012.8
20190521212104 60 56 1.0 8.0 0.00 0.00 0.00 100 1012.9
20190521211604 60 62 0.0 2.0 0.00 0.00 0.00 100 1012.9
20190521211104 60 73 1.0 12.0 0.00 0.00 0.00 100 1013.0
20190521210104 60 75 1.0 6.0 0.00 0.00 0.00 100 1013.0
20190521205604 60 86 0.0 3.0 0.00 0.00 0.00 100 1013.1
20190521205104 60 116 0.0 3.0 0.00 0.00 0.00 100 1013.2
20190521204604 60 76 0.0 2.0 0.00 0.00 0.00 100 1013.1
20190521204103 60 187 0.0 3.0 0.00 0.00 0.00 100 1013.3
20190521202104 60 38 0.0 5.0 0.00 0.00 0.00 100 1013.7
20190521201603 61 58 0.0 2.0 0.00 0.00 0.00 100 1013.8
20190521201104 61 55 0.0 5.0 0.00 0.00 0.00 100 1013.8
20190521200604 61 68 0.0 3.0 0.00 0.00 0.00 100 1013.9
20190521195104 61 46 0.0 1.0 0.00 0.00 0.00 100 1013.9
20190521194604 61 46 0.0 2.0 0.00 0.00 0.00 100 1014.0
20190521194103 61 46 1.0 3.0 0.00 0.00 0.00 100 1014.2
20190521193604 61 69 1.0 3.0 0.00 0.00 0.00 100 1014.1
20190521193103 61 126 0.0 3.0 0.00 0.00 0.00 100 1014.4
20190521192103 61 60 0.0 3.0 0.00 0.00 0.00 100 1014.6
20190521191604 61 169 1.0 10.0 0.00 0.00 0.00 100 1014.7
20190521190604 61 32 0.0 5.0 0.00 0.00 0.00 100 1015.0
20190521185604 61 7 1.0 3.0 0.00 0.00 0.00 100 1015.2
20190521184604 61 122 0.0 9.0 0.00 0.00 0.00 100 1015.4
20190521184104 62 309 1.0 5.0 0.00 0.00 0.00 100 1015.5
20190521183604 62 150 0.0 6.0 0.00 0.00 0.00 100 1015.7
20190521183104 62 133 1.0 3.0 0.00 0.00 0.00 100 1015.8
20190521182604 62 194 2.0 9.0 0.00 0.00 0.00 100 1015.8
20190521181604 61 76 1.0 3.0 0.00 0.00 0.00 100 1015.8
20190521180604 60 39 0.0 2.0 0.00 0.00 0.00 100 1015.8
20190521180104 60 35 1.0 3.0 0.00 0.00 0.00 100 1015.9
20190521175103 60 53 0.0 2.0 0.00 0.00 0.00 100 1016.1
20190521174603 60 52 0.0 3.0 0.00 0.00 0.00 100 1016.2
20190521174104 60 174 1.0 7.0 0.00 0.00 0.00 100 1016.2
20190521173604 60 183 0.0 3.0 0.00 0.00 0.00 100 1016.3
20190521172603 60 87 1.0 3.0 0.00 0.00 0.00 100 1016.4
20190521171604 59 47 1.0 3.0 0.00 0.00 0.00 100 1016.2
20190521171104 60 44 1.0 3.0 0.00 0.00 0.00 100 1016.5
20190521170603 60 68 0.0 3.0 0.00 0.00 0.00 100 1016.5
20190521170103 60 230 0.0 7.0 0.00 0.00 0.00 100 1016.7
20190521164604 61 215 1.0 3.0 0.00 0.00 0.00 100 1017.2
20190521163604 61 49 1.0 7.0 0.00 0.00 0.00 100 1017.1
20190521163103 62 47 1.0 5.0 0.00 0.00 0.00 100 1017.1
20190521162604 62 215 1.0 3.0 0.00 0.00 0.00 100 1016.9
20190521162104 61 221 1.0 5.0 0.00 0.00 0.00 100 1016.9
20190521160603 61 123 1.0 6.0 0.00 0.00 0.00 100 1017.1
20190521155103 59 11 1.0 3.0 0.00 0.00 0.00 100 1017.4
20190521154604 58 42 0.0 5.0 0.00 0.00 0.00 100 1017.5
20190521154103 58 219 1.0 3.0 0.00 0.00 0.00 100 1017.7
20190521153604 58 154 0.0 2.0 0.00 0.00 0.00 100 1017.8
20190521153103 58 130 0.0 2.0 0.00 0.00 0.00 100 1018.0
20190521152604 58 156 1.0 8.0 0.00 0.00 0.00 100 1017.9
20190521151604 58 90 0.0 3.0 0.00 0.00 0.00 100 1018.0
20190521150604 57 333 0.0 2.0 0.00 0.00 0.00 100 1018.1
20190521145604 56 138 0.0 3.0 0.00 0.00 0.00 100 1018.2
20190521144604 55 109 0.0 1.0 0.00 0.00 0.00 100 1018.2
20190521144103 55 145 0.0 3.0 0.00 0.00 0.00 100 1018.2
20190521143604 55 180 0.0 3.0 0.00 0.00 0.00 100 1018.2
20190521143103 55 123 0.0 1.0 0.00 0.00 0.00 100 1018.1
20190521142604 55 172 0.0 1.0 0.00 0.00 0.00 100 1018.3
20190521142104 54 174 0.0 1.0 0.00 0.00 0.00 100 1018.3
20190521141604 54 174 0.0 7.0 0.00 0.00 0.00 100 1018.4
20190521141103 54 80 0.0 1.0 0.00 0.00 0.00 100 1018.5
20190521140604 53 80 0.0 1.0 0.00 0.00 0.00 100 1018.6
20190521140103 53 80 0.0 0.0 0.00 0.00 0.00 100 1018.6
20190521135604 53 80 0.0 1.0 0.00 0.00 0.00 100 1018.8
20190521135103 53 80 0.0 0.0 0.00 0.00 0.00 100 1018.7
20190521134604 53 80 0.0 0.0 0.00 0.00 0.00 100 1018.7
20190521134103 53 81 0.0 0.0 0.00 0.00 0.00 100 1018.7
20190521133604 52 81 0.0 0.0 0.00 0.00 0.00 100 1018.6
20190521132604 52 81 0.0 0.0 0.00 0.00 0.00 100 1018.4
20190521132103 52 81 0.0 0.0 0.00 0.00 0.00 100 1018.3
20190521131104 52 81 0.0 0.0 0.00 0.00 0.00 100 1018.0
20190521130604 51 81 0.0 0.0 0.00 0.00 0.00 100 1018.0
20190521130104 51 81 0.0 0.0 0.00 0.00 0.00 100 1018.0
20190521125104 51 81 0.0 0.0 0.00 0.00 0.00 100 1018.4
20190521124605 51 81 0.0 0.0 0.00 0.00 0.00 100 1018.5
20190521123103 50 81 0.0 0.0 0.00 0.00 0.00 100 1018.5
20190521122604 50 81 0.0 0.0 0.00 0.00 0.00 100 1018.3
20190521121104 49 81 0.0 0.0 0.00 0.00 0.00 100 1018.4
20190521120604 49 81 0.0 0.0 0.00 0.00 0.00 100 1018.2
20190521115104 49 81 0.0 0.0 0.00 0.00 0.00 100 1018.0
20190521114603 48 81 0.0 0.0 0.00 0.00 0.00 100 1018.0
20190521113603 48 81 0.0 0.0 0.00 0.00 0.00 100 1018.1
20190521113103 48 81 0.0 0.0 0.00 0.00 0.00 100 1017.9
20190521112604 48 81 0.0 0.0 0.00 0.00 0.00 100 1017.8
20190521112103 48 81 0.0 0.0 0.00 0.00 0.00 100 1017.8
20190521111604 48 81 0.0 0.0 0.00 0.00 0.00 100 1017.8
20190521111104 48 81 0.0 0.0 0.00 0.00 0.00 100 1017.7
20190521110104 48 81 0.0 0.0 0.00 0.00 0.00 100 1017.7
20190521105604 48 81 0.0 0.0 0.00 0.00 0.00 100 1017.7
20190521105103 48 81 0.0 0.0 0.00 0.00 0.00 100 1017.7
20190521104604 48 81 0.0 0.0 0.00 0.00 0.00 100 1017.8
20190521103604 48 81 0.0 0.0 0.00 0.00 0.00 100 1017.9
20190521103103 48 81 0.0 0.0 0.00 0.00 0.00 100 1017.7
20190521102604 48 81 0.0 0.0 0.00 0.00 0.00 100 1017.7
20190521101604 48 81 0.0 0.0 0.00 0.00 0.00 100 1017.7
20190521101104 48 81 0.0 0.0 0.00 0.00 0.00 100 1018.0
20190521100604 48 81 0.0 0.0 0.00 0.00 0.00 100 1018.4
20190521100103 48 81 0.0 0.0 0.00 0.00 0.00 100 1018.0
20190521095104 48 81 0.0 0.0 0.00 0.00 0.00 100 1017.5
20190521094104 48 81 0.0 0.0 0.00 0.00 0.00 100 1017.4
20190521093104 48 81 0.0 0.0 0.00 0.00 0.00 100 1017.6
20190521092604 48 81 0.0 0.0 0.00 0.00 0.00 100 1017.8
20190521092104 48 81 0.0 0.0 0.00 0.00 0.00 100 1017.8
20190521091603 48 81 0.0 0.0 0.00 0.00 0.00 100 1018.1
20190521091103 48 81 0.0 0.0 0.00 0.00 0.00 100 1018.3
20190521090604 48 81 0.0 0.0 0.00 0.00 0.00 100 1018.5
20190521085604 48 81 0.0 0.0 0.00 0.00 0.00 100 1018.4
20190521085104 48 81 0.0 0.0 0.00 0.00 0.00 100 1018.3
20190521084603 48 81 0.0 0.0 0.00 0.00 0.00 100 1018.2
20190521083605 47 81 0.0 0.0 0.00 0.00 0.00 100 1017.7
20190521083104 47 81 0.0 0.0 0.00 0.00 0.00 100 1017.9
20190521082104 48 81 0.0 0.0 0.00 0.00 0.00 100 1018.0
20190521081604 48 81 0.0 0.0 0.00 0.00 0.00 100 1018.1
20190521080604 48 81 0.0 0.0 0.00 0.00 0.00 100 1018.0
20190521080104 48 81 0.0 0.0 0.00 0.00 0.00 100 1018.2
20190521074603 48 81 0.0 0.0 0.00 0.00 0.00 100 1018.5
20190521074104 48 81 0.0 0.0 0.00 0.00 0.00 100 1018.7
20190521073604 48 81 0.0 0.0 0.00 0.00 0.00 100 1018.7
20190521073104 48 81 0.0 0.0 0.00 0.00 0.00 100 1018.8
20190521072604 48 81 0.0 0.0 0.00 0.00 0.00 100 1018.7
20190521071603 48 81 0.0 0.0 0.00 0.00 0.00 100 1018.8
20190521071103 48 81 0.0 0.0 0.00 0.00 0.00 100 1018.8
20190521070605 48 81 0.0 0.0 0.00 0.00 0.00 100 1018.8
20190521070104 48 81 0.0 0.0 0.00 0.00 0.00 100 1018.8
20190521065604 48 81 0.0 0.0 0.00 0.00 0.00 100 1018.8
20190521065103 48 81 0.0 0.0 0.00 0.00 0.00 100 1018.8
20190521064603 48 81 0.0 0.0 0.00 0.00 0.00 100 1018.9
20190521063604 48 81 0.0 0.0 0.00 0.00 0.00 100 1019.0
20190521062104 49 81 0.0 0.0 0.00 0.00 0.00 100 1018.8
20190521061603 49 81 0.0 0.0 0.00 0.00 0.00 100 1018.8
20190521061103 49 81 0.0 0.0 0.00 0.00 0.00 100 1018.8
20190521060604 49 81 0.0 3.0 0.00 0.00 0.00 100 1018.7
20190521055604 49 81 0.0 0.0 0.00 0.00 0.00 100 1019.0
20190521055104 49 81 0.0 0.0 0.00 0.00 0.00 100 1019.2
20190521054603 49 81 0.0 0.0 0.00 0.00 0.00 100 1019.2
20190521054103 49 81 0.0 0.0 0.00 0.00 0.00 100 1019.4
20190521053603 49 81 0.0 0.0 0.00 0.00 0.00 100 1019.4
20190521053104 50 81 0.0 0.0 0.00 0.00 0.00 100 1019.2
20190521052104 50 81 0.0 0.0 0.00 0.00 0.00 100 1018.9
20190521051603 50 81 0.0 0.0 0.00 0.00 0.00 100 1018.8
20190521051104 50 81 0.0 0.0 0.00 0.00 0.00 100 1018.7
20190521050604 50 81 0.0 0.0 0.00 0.00 0.00 100 1018.6
20190521045604 51 81 0.0 0.0 0.00 0.00 0.00 100 1018.8
20190521045104 51 80 0.0 0.0 0.00 0.00 0.00 100 1018.8
20190521044604 51 81 0.0 0.0 0.00 0.00 0.00 100 1018.7
20190521043604 51 81 0.0 0.0 0.00 0.00 0.00 100 1018.5
20190521042103 52 81 0.0 0.0 0.00 0.00 0.00 100 1018.8
20190521041604 52 81 0.0 0.0 0.00 0.01 0.00 100 1018.9
20190521041104 52 81 0.0 0.0 0.00 0.01 0.00 100 1018.8
20190521040104 53 81 0.0 0.0 0.00 0.01 0.00 100 1019.0
20190521035104 53 81 0.0 0.0 0.00 0.01 0.00 100 1019.0
20190521034603 54 81 0.0 0.0 0.00 0.01 0.00 100 1019.0
20190521033604 54 81 0.0 0.0 0.00 0.01 0.00 100 1019.0
20190521033103 54 81 0.0 0.0 0.00 0.01 0.00 100 1019.0
20190521032603 55 81 0.0 0.0 0.00 0.01 0.00 100 1019.0
20190521032104 55 81 0.0 0.0 0.00 0.01 0.00 100 1019.1
20190521031603 55 81 0.0 0.0 0.00 0.01 0.00 100 1019.1
20190521031104 55 81 0.0 0.0 0.00 0.01 0.00 100 1019.0
20190521030103 55 81 0.0 0.0 0.00 0.01 0.00 100 1018.8
20190521025604 55 81 0.0 0.0 0.00 0.01 0.00 100 1018.9
20190521025103 55 81 0.0 0.0 0.00 0.01 0.00 100 1018.9
20190521024604 55 81 0.0 0.0 0.00 0.01 0.00 100 1018.8
20190521024104 55 81 0.0 0.0 0.00 0.01 0.00 100 1018.6
20190521023603 55 81 0.0 0.0 0.00 0.01 0.00 100 1018.6
20190521022604 56 81 0.0 0.0 0.00 0.01 0.00 100 1018.6
20190521021103 56 81 0.0 0.0 0.00 0.01 0.00 100 1018.7
20190521020604 56 81 0.0 0.0 0.00 0.01 0.00 100 1018.7
20190521020103 56 81 0.0 0.0 0.00 0.01 0.00 100 1018.5
20190521014604 56 81 0.0 0.0 0.00 0.01 0.00 100 1018.6
20190521014103 56 81 0.0 0.0 0.00 0.01 0.00 100 1018.7
20190521013103 57 81 0.0 0.0 0.00 0.01 0.00 100 1018.9
20190521012104 57 81 0.0 0.0 0.00 0.01 0.00 100 1019.0
20190521011603 57 81 0.0 0.0 0.00 0.01 0.00 100 1019.1
20190521010604 58 81 0.0 0.0 0.00 0.01 0.00 100 1019.0
20190521004604 58 81 0.0 0.0 0.00 0.01 0.00 100 1019.1
20190521003103 59 81 0.0 0.0 0.00 0.01 0.00 100 1019.1
20190521002104 60 81 0.0 0.0 0.00 0.01 0.00 100 1019.2
20190521001603 60 81 0.0 0.0 0.00 0.01 0.00 100 1019.2
20190521001103 60 81 0.0 1.0 0.00 0.01 0.00 100 1019.2
20190521000604 60 81 0.0 0.0 0.00 0.01 0.00 100 1019.3
20190521000104 60 81 0.0 0.0 0.00 0.01 0.00 100 1019.3
20190520235603 60 81 0.0 1.0 0.00 0.01 0.00 100 1019.3
20190520235104 61 81 0.0 0.0 0.00 0.01 0.00 100 1019.4
20190520234603 61 81 0.0 0.0 0.00 0.01 0.00 100 1019.3
20190520234104 61 81 0.0 1.0 0.00 0.01 0.00 100 1019.4
20190520233604 61 81 0.0 0.0 0.00 0.01 0.00 100 1019.5
20190520233103 61 81 0.0 1.0 0.00 0.01 0.00 100 1019.5
20190520232103 61 81 0.0 0.0 0.00 0.01 0.00 100 1019.5
20190520231604 61 81 0.0 1.0 0.00 0.01 0.00 100 1019.6
20190520231104 61 81 0.0 0.0 0.00 0.01 0.00 100 1019.4
20190520225103 61 81 0.0 0.0 0.00 0.01 0.00 100 1019.5
20190520224103 61 81 0.0 0.0 0.00 0.01 0.00 100 1019.5
20190520223604 62 81 0.0 0.0 0.00 0.01 0.00 100 1019.5